星链-5866 (STARLINK-5866 )

导读 | 星芒AI

STARLINK-5866 是 SpaceX Starlink 项目中的一颗低轨道通信卫星,属于第二代星链卫星群。该卫星于2023年发射,旨在为全球提供高速、低延迟的互联网服务。它运行在约550公里高的近地轨道,配备先进通信设备,支持宽带数据传输。作为 Starlink 网络的重要组成部分,STARLINK-5866 有助于提升偏远地区的网络覆盖,推动全球互联网普及。

基本信息
目录编号:
57233
目录名称:
STARLINK-5866
国际标识:
2023-094R
轨道中心:
EARTH
卫星名称:
星链-5866
卫星全名:
星链-5866 (STARLINK-5866 )
卫星状态:
在轨 (已飞行851 天)
发射日期:
2023-07-07 UTC
国别 :
美国 (US)
星等 :
--
轨道信息
数据来源 国际轨道数据 AOE轨道数据
星历时间 2025-11-02T18:54:09+0800
1天前
查看轨道信息
2025-11-03T07:00:00+0800
1天前
查看轨道信息
半长轴 6937.235km 6937.19km
偏心率 0.0001312 0.0000035
轨道倾角 43.004° 43.003°
近地点辐角 266.109° 336.746°
升交点赤经 1.413° 358.677°
平近点角 93.960° 232.996°
近地点 558.189km 559.03km
远地点 560.011km 559.08km
周期 95.838分钟 95.837分钟
每日圈数 15.025302 15.025449
详细信息
固有亮度:
5
最大亮度:
2.4
卫星平台:
Starlink v1.5
覆盖范围:
全球
运营商:
太空探索技术公司
运营商所在国:
美国
制造商(研发单位):
太空探索技术公司
制造商所在国:
美国
使用方式:
暂无
卫星简介
星链(Starlink)计划是由太空探索技术公司(SpaceX)提出的一个巨型低轨卫星互联网星座项目,计划在2019年至2024年间在太空搭建由约1.2万颗卫星组成的“星链”网络,其中1584颗将部署在地球上空550千米处的近地轨道,并从2020年开始工作。该卫星仍在工作。
2D轨道图
3D轨道图
轨道高度分析图
轨道倾角分析图
轨道综合分析图
查看轨道综合分析图